| time (UTC) | temp F | wind direction | speed MPH | gust MPH | rain 1hr in | rain 24hr in | rain mn in | humidity % | barometer mb |
| 20260906025958 | 75 | 61 | 0.0 | 2.0 | 0.00 | 0.07 | 0.07 | 84 | 1014.3 |
| 20260906025457 | 75 | 212 | 2.0 | 3.0 | 0.00 | 0.07 | 0.07 | 84 | 1014.4 |
| 20260906024955 | 75 | 237 | 3.0 | 5.0 | 0.00 | 0.07 | 0.07 | 84 | 1014.6 |
| 20260906024451 | 75 | 212 | 4.0 | 9.0 | 0.00 | 0.07 | 0.07 | 84 | 1014.5 |
| 20260906023950 | 75 | 248 | 4.0 | 7.0 | 0.07 | 0.07 | 0.07 | 83 | 1014.6 |
| 20260906023447 | 75 | 216 | 5.0 | 9.0 | 0.35 | 0.07 | 0.07 | 82 | 1014.4 |
| 20260906022946 | 76 | 237 | 8.0 | 14.0 | 0.35 | 0.06 | 0.06 | 79 | 1014.4 |
| 20260906022442 | 78 | 221 | 8.0 | 18.0 | 0.07 | 0.01 | 0.01 | 74 | 1014.4 |
| 20260906021937 | 80 | 222 | 9.0 | 19.0 | 0.00 | 0.00 | 0.00 | 69 | 1014.7 |
| 20260906021432 | 80 | 225 | 7.0 | 20.0 | 0.00 | 0.00 | 0.00 | 67 | 1014.5 |
| 20260906020926 | 81 | 240 | 7.0 | 21.0 | 0.00 | 0.00 | 0.00 | 68 | 1014.4 |
| 20260906020421 | 83 | 236 | 11.0 | 20.0 | 0.00 | 0.00 | 0.00 | 68 | 1014.2 |
| 20260906015915 | 86 | 223 | 16.0 | 22.0 | 0.00 | 0.00 | 0.00 | 63 | 1014.2 |
| 20260906015414 | 90 | 205 | 4.0 | 8.0 | 0.00 | 0.00 | 0.00 | 64 | 1013.7 |
| 20260906014909 | 90 | 182 | 7.0 | 14.0 | 0.00 | 0.00 | 0.00 | 64 | 1013.4 |
| 20260906014408 | 90 | 169 | 5.0 | 12.0 | 0.00 | 0.00 | 0.00 | 64 | 1013.2 |
| 20260906013905 | 90 | 160 | 7.0 | 12.0 | 0.00 | 0.00 | 0.00 | 64 | 1013.0 |
| 20260906013400 | 90 | 155 | 9.0 | 15.0 | 0.00 | 0.00 | 0.00 | 63 | 1012.7 |
| 20260906012855 | 90 | 152 | 8.0 | 15.0 | 0.00 | 0.00 | 0.00 | 63 | 1012.7 |
| 20260906012350 | 90 | 169 | 8.0 | 15.0 | 0.00 | 0.00 | 0.00 | 62 | 1012.4 |
| 20260906011850 | 91 | 150 | 9.0 | 12.0 | 0.00 | 0.00 | 0.00 | 61 | 1012.4 |
| 20260906011344 | 91 | 141 | 12.0 | 17.0 | 0.00 | 0.00 | 0.00 | 61 | 1012.2 |
| 20260906010840 | 91 | 140 | 13.0 | 17.0 | 0.00 | 0.00 | 0.00 | 60 | 1012.1 |
| 20260906010336 | 91 | 134 | 6.0 | 19.0 | 0.00 | 0.00 | 0.00 | 60 | 1012.0 |
| 20260906005832 | 91 | 175 | 7.0 | 17.0 | 0.00 | 0.00 | 0.00 | 58 | 1011.8 |
| 20260906005331 | 92 | 134 | 9.0 | 12.0 | 0.00 | 0.00 | 0.00 | 58 | 1011.6 |
| 20260906004830 | 92 | 138 | 11.0 | 15.0 | 0.00 | 0.00 | 0.00 | 57 | 1011.7 |
| 20260906004330 | 92 | 158 | 9.0 | 14.0 | 0.00 | 0.00 | 0.00 | 57 | 1011.6 |
| 20260906003825 | 93 | 152 | 9.0 | 16.0 | 0.00 | 0.00 | 0.00 | 56 | 1011.4 |
| 20260906003320 | 93 | 137 | 10.0 | 20.0 | 0.00 | 0.00 | 0.00 | 56 | 1011.2 |
| 20260906002816 | 93 | 145 | 9.0 | 15.0 | 0.00 | 0.00 | 0.00 | 55 | 1011.3 |
| 20260906002315 | 93 | 144 | 11.0 | 23.0 | 0.00 | 0.00 | 0.00 | 55 | 1011.1 |
| 20260906001811 | 94 | 148 | 9.0 | 15.0 | 0.00 | 0.00 | 0.00 | 53 | 1011.0 |
| 20260906001307 | 94 | 160 | 9.0 | 17.0 | 0.00 | 0.00 | 0.00 | 52 | 1010.9 |
| 20260906000807 | 94 | 139 | 9.0 | 16.0 | 0.00 | 0.00 | 0.00 | 52 | 1010.8 |
| 20260906000303 | 95 | 146 | 10.0 | 17.0 | 0.00 | 0.00 | 0.00 | 51 | 1010.6 |
| 20260905235756 | 95 | 159 | 7.0 | 14.0 | 0.00 | 0.00 | 0.00 | 50 | 1010.5 |
| 20260905235256 | 95 | 173 | 6.0 | 16.0 | 0.00 | 0.00 | 0.00 | 50 | 1010.3 |
| 20260905234751 | 96 | 161 | 8.0 | 15.0 | 0.00 | 0.00 | 0.00 | 49 | 1010.2 |
| 20260905234246 | 96 | 136 | 12.0 | 15.0 | 0.00 | 0.00 | 0.00 | 49 | 1009.9 |
| 20260905233742 | 96 | 147 | 10.0 | 19.0 | 0.00 | 0.00 | 0.00 | 49 | 1009.9 |
| 20260905233241 | 96 | 143 | 10.0 | 15.0 | 0.00 | 0.00 | 0.00 | 49 | 1010.0 |
| 20260905232736 | 96 | 156 | 9.0 | 14.0 | 0.00 | 0.00 | 0.00 | 48 | 1009.9 |
| 20260905232232 | 96 | 142 | 13.0 | 17.0 | 0.00 | 0.00 | 0.00 | 48 | 1009.9 |
| 20260905231727 | 97 | 154 | 8.0 | 16.0 | 0.00 | 0.00 | 0.00 | 48 | 1009.6 |
| 20260905231223 | 97 | 148 | 8.0 | 16.0 | 0.00 | 0.00 | 0.00 | 47 | 1009.7 |
| 20260905230719 | 97 | 125 | 9.0 | 15.0 | 0.00 | 0.00 | 0.00 | 46 | 1009.8 |
| 20260905230216 | 97 | 179 | 5.0 | 12.0 | 0.00 | 0.00 | 0.00 | 46 | 1009.9 |
| 20260905225716 | 98 | 134 | 7.0 | 16.0 | 0.00 | 0.00 | 0.00 | 45 | 1009.7 |
| 20260905225212 | 97 | 148 | 11.0 | 15.0 | 0.00 | 0.00 | 0.00 | 45 | 1009.7 |
| 20260905224711 | 98 | 132 | 11.0 | 18.0 | 0.00 | 0.00 | 0.00 | 44 | 1009.4 |
| 20260905224206 | 98 | 184 | 5.0 | 16.0 | 0.00 | 0.00 | 0.00 | 44 | 1009.5 |
| 20260905223703 | 98 | 151 | 12.0 | 20.0 | 0.00 | 0.00 | 0.00 | 43 | 1009.5 |
| 20260905223159 | 98 | 146 | 7.0 | 11.0 | 0.00 | 0.00 | 0.00 | 42 | 1009.8 |
| 20260905222654 | 99 | 146 | 13.0 | 17.0 | 0.00 | 0.00 | 0.00 | 42 | 1009.2 |
| 20260905222154 | 99 | 141 | 11.0 | 15.0 | 0.00 | 0.00 | 0.00 | 42 | 1009.5 |
| 20260905221649 | 100 | 129 | 10.0 | 20.0 | 0.00 | 0.00 | 0.00 | 41 | 1009.3 |
| 20260905221146 | 100 | 141 | 13.0 | 18.0 | 0.00 | 0.00 | 0.00 | 39 | 1009.3 |
| 20260905220641 | 100 | 140 | 9.0 | 14.0 | 0.00 | 0.00 | 0.00 | 39 | 1009.2 |
| 20260905220137 | 100 | 130 | 7.0 | 16.0 | 0.00 | 0.00 | 0.00 | 38 | 1009.3 |
| 20260905215637 | 101 | 140 | 13.0 | 18.0 | 0.00 | 0.00 | 0.00 | 38 | 1009.2 |
| 20260905215138 | 100 | 113 | 3.0 | 12.0 | 0.00 | 0.00 | 0.00 | 38 | 1009.3 |
| 20260905214635 | 101 | 131 | 9.0 | 13.0 | 0.00 | 0.00 | 0.00 | 38 | 1009.3 |
| 20260905214135 | 100 | 176 | 5.0 | 11.0 | 0.00 | 0.00 | 0.00 | 39 | 1009.6 |
| 20260905213630 | 101 | 137 | 9.0 | 14.0 | 0.00 | 0.00 | 0.00 | 38 | 1009.4 |
| 20260905213125 | 101 | 144 | 10.0 | 15.0 | 0.00 | 0.00 | 0.00 | 38 | 1009.4 |
| 20260905212620 | 101 | 146 | 12.0 | 16.0 | 0.00 | 0.00 | 0.00 | 38 | 1009.7 |
| 20260905212114 | 101 | 152 | 8.0 | 13.0 | 0.00 | 0.00 | 0.00 | 39 | 1009.8 |
| 20260905211609 | 101 | 158 | 6.0 | 9.0 | 0.00 | 0.00 | 0.00 | 39 | 1009.9 |
| 20260905211104 | 100 | 137 | 7.0 | 16.0 | 0.00 | 0.00 | 0.00 | 40 | 1010.2 |
| 20260905210601 | 100 | 172 | 7.0 | 18.0 | 0.00 | 0.00 | 0.00 | 41 | 1010.1 |
| 20260905210055 | 100 | 142 | 10.0 | 14.0 | 0.00 | 0.00 | 0.00 | 38 | 1010.2 |
| 20260905205554 | 101 | 159 | 7.0 | 20.0 | 0.00 | 0.00 | 0.00 | 39 | 1010.1 |
| 20260905205054 | 101 | 162 | 7.0 | 9.0 | 0.00 | 0.00 | 0.00 | 39 | 1010.2 |
| 20260905204549 | 101 | 186 | 7.0 | 15.0 | 0.00 | 0.00 | 0.00 | 36 | 1010.4 |
| 20260905204044 | 101 | 127 | 9.0 | 13.0 | 0.00 | 0.00 | 0.00 | 36 | 1010.4 |
| 20260905203543 | 100 | 139 | 7.0 | 14.0 | 0.00 | 0.00 | 0.00 | 37 | 1010.5 |
| 20260905203039 | 101 | 149 | 6.0 | 12.0 | 0.00 | 0.00 | 0.00 | 38 | 1010.7 |
| 20260905202535 | 101 | 148 | 8.0 | 14.0 | 0.00 | 0.00 | 0.00 | 38 | 1010.5 |
| 20260905202030 | 100 | 139 | 4.0 | 12.0 | 0.00 | 0.00 | 0.00 | 39 | 1010.9 |
| 20260905201526 | 100 | 147 | 4.0 | 5.0 | 0.00 | 0.00 | 0.00 | 39 | 1010.9 |
| 20260905201025 | 100 | 173 | 5.0 | 15.0 | 0.00 | 0.00 | 0.00 | 39 | 1011.0 |
| 20260905200520 | 100 | 217 | 5.0 | 9.0 | 0.00 | 0.00 | 0.00 | 40 | 1011.2 |
| 20260905200020 | 99 | 134 | 6.0 | 9.0 | 0.00 | 0.00 | 0.00 | 41 | 1011.3 |
| 20260905195514 | 100 | 156 | 8.0 | 11.0 | 0.00 | 0.00 | 0.00 | 40 | 1011.4 |
| 20260905195010 | 100 | 244 | 2.0 | 6.0 | 0.00 | 0.00 | 0.00 | 39 | 1011.5 |
| 20260905194509 | 99 | 178 | 6.0 | 9.0 | 0.00 | 0.00 | 0.00 | 40 | 1011.7 |
| 20260905194004 | 100 | 177 | 9.0 | 10.0 | 0.00 | 0.00 | 0.00 | 42 | 1011.7 |
| 20260905193504 | 100 | 165 | 8.0 | 11.0 | 0.00 | 0.00 | 0.00 | 42 | 1011.8 |
| 20260905192959 | 99 | 137 | 7.0 | 13.0 | 0.00 | 0.00 | 0.00 | 42 | 1011.8 |
| 20260905192454 | 99 | 149 | 6.0 | 11.0 | 0.00 | 0.00 | 0.00 | 44 | 1011.7 |
| 20260905191950 | 99 | 177 | 4.0 | 9.0 | 0.00 | 0.00 | 0.00 | 43 | 1011.9 |
| 20260905191449 | 99 | 178 | 6.0 | 10.0 | 0.00 | 0.00 | 0.00 | 43 | 1012.0 |
| 20260905190948 | 99 | 131 | 9.0 | 12.0 | 0.00 | 0.00 | 0.00 | 44 | 1012.1 |
| 20260905190447 | 98 | 241 | 2.0 | 8.0 | 0.00 | 0.00 | 0.00 | 46 | 1012.0 |
| 20260905185945 | 97 | 160 | 4.0 | 10.0 | 0.00 | 0.00 | 0.00 | 46 | 1012.3 |
| 20260905185441 | 98 | 132 | 3.0 | 10.0 | 0.00 | 0.00 | 0.00 | 45 | 1012.4 |
| 20260905184940 | 97 | 179 | 6.0 | 9.0 | 0.00 | 0.00 | 0.00 | 48 | 1012.5 |
| 20260905184440 | 97 | 173 | 3.0 | 7.0 | 0.00 | 0.00 | 0.00 | 47 | 1012.5 |
| 20260905183938 | 97 | 143 | 9.0 | 12.0 | 0.00 | 0.00 | 0.00 | 47 | 1012.4 |
| 20260905183433 | 96 | 162 | 8.0 | 9.0 | 0.00 | 0.00 | 0.00 | 49 | 1012.4 |
| 20260905182928 | 96 | 176 | 3.0 | 10.0 | 0.00 | 0.00 | 0.00 | 49 | 1012.6 |
| 20260905182427 | 96 | 175 | 8.0 | 15.0 | 0.00 | 0.00 | 0.00 | 50 | 1012.7 |
| 20260905181923 | 96 | 184 | 6.0 | 9.0 | 0.00 | 0.00 | 0.00 | 50 | 1012.9 |
| 20260905181418 | 97 | 147 | 6.0 | 13.0 | 0.00 | 0.00 | 0.00 | 48 | 1012.9 |
| 20260905180917 | 97 | 182 | 10.0 | 12.0 | 0.00 | 0.00 | 0.00 | 50 | 1012.9 |
| 20260905180412 | 97 | 206 | 3.0 | 10.0 | 0.00 | 0.00 | 0.00 | 48 | 1013.0 |
| 20260905175907 | 98 | 145 | 6.0 | 8.0 | 0.00 | 0.00 | 0.00 | 48 | 1012.9 |
| 20260905175406 | 97 | 161 | 6.0 | 10.0 | 0.00 | 0.00 | 0.00 | 48 | 1013.2 |
| 20260905174901 | 96 | 185 | 9.0 | 10.0 | 0.00 | 0.00 | 0.00 | 49 | 1013.3 |
| 20260905174357 | 96 | 182 | 7.0 | 8.0 | 0.00 | 0.00 | 0.00 | 52 | 1013.3 |
| 20260905173852 | 95 | 145 | 6.0 | 16.0 | 0.00 | 0.00 | 0.00 | 52 | 1013.6 |
| 20260905173349 | 96 | 146 | 10.0 | 14.0 | 0.00 | 0.00 | 0.00 | 51 | 1013.4 |
| 20260905172843 | 96 | 187 | 7.0 | 10.0 | 0.00 | 0.00 | 0.00 | 51 | 1013.5 |
| 20260905172342 | 96 | 186 | 4.0 | 10.0 | 0.00 | 0.00 | 0.00 | 51 | 1013.5 |
| 20260905171838 | 95 | 179 | 5.0 | 12.0 | 0.00 | 0.00 | 0.00 | 52 | 1013.7 |
| 20260905171335 | 95 | 132 | 6.0 | 9.0 | 0.00 | 0.00 | 0.00 | 53 | 1013.5 |
| 20260905170830 | 95 | 188 | 6.0 | 10.0 | 0.00 | 0.00 | 0.00 | 53 | 1013.8 |
| 20260905170326 | 95 | 194 | 5.0 | 8.0 | 0.00 | 0.00 | 0.00 | 54 | 1013.8 |
| 20260905165825 | 95 | 137 | 7.0 | 13.0 | 0.00 | 0.00 | 0.00 | 54 | 1013.8 |
| 20260905165321 | 94 | 191 | 10.0 | 10.0 | 0.00 | 0.00 | 0.00 | 55 | 1014.0 |
| 20260905164820 | 95 | 173 | 5.0 | 10.0 | 0.00 | 0.00 | 0.00 | 55 | 1013.9 |
| 20260905164315 | 93 | 181 | 6.0 | 10.0 | 0.00 | 0.00 | 0.00 | 57 | 1013.8 |
| 20260905163811 | 93 | 168 | 5.0 | 11.0 | 0.00 | 0.00 | 0.00 | 57 | 1013.9 |
| 20260905163307 | 93 | 172 | 3.0 | 12.0 | 0.00 | 0.00 | 0.00 | 56 | 1013.9 |
| 20260905162803 | 94 | 194 | 5.0 | 14.0 | 0.00 | 0.00 | 0.00 | 57 | 1014.1 |
| 20260905162257 | 93 | 189 | 6.0 | 8.0 | 0.00 | 0.00 | 0.00 | 58 | 1014.1 |
| 20260905161751 | 92 | 174 | 6.0 | 8.0 | 0.00 | 0.00 | 0.00 | 61 | 1013.9 |
| 20260905161250 | 92 | 178 | 11.0 | 13.0 | 0.00 | 0.00 | 0.00 | 60 | 1014.1 |
| 20260905160748 | 92 | 175 | 6.0 | 8.0 | 0.00 | 0.00 | 0.00 | 61 | 1014.2 |
| 20260905160243 | 91 | 151 | 9.0 | 13.0 | 0.00 | 0.00 | 0.00 | 62 | 1014.2 |
| 20260905155739 | 92 | 141 | 6.0 | 13.0 | 0.00 | 0.00 | 0.00 | 62 | 1014.3 |
| 20260905155237 | 92 | 174 | 7.0 | 9.0 | 0.00 | 0.00 | 0.00 | 61 | 1014.3 |
| 20260905154731 | 91 | 180 | 6.0 | 9.0 | 0.00 | 0.00 | 0.00 | 63 | 1014.2 |
| 20260905154228 | 90 | 201 | 5.0 | 10.0 | 0.00 | 0.00 | 0.00 | 64 | 1014.4 |
| 20260905153722 | 90 | 189 | 8.0 | 10.0 | 0.00 | 0.00 | 0.00 | 65 | 1014.4 |
| 20260905153218 | 90 | 190 | 6.0 | 9.0 | 0.00 | 0.00 | 0.00 | 67 | 1014.2 |
| 20260905152713 | 89 | 188 | 10.0 | 13.0 | 0.00 | 0.00 | 0.00 | 67 | 1014.3 |
| 20260905152208 | 89 | 166 | 5.0 | 10.0 | 0.00 | 0.00 | 0.00 | 69 | 1014.4 |
| 20260905151707 | 89 | 160 | 5.0 | 6.0 | 0.00 | 0.00 | 0.00 | 69 | 1014.5 |
| 20260905151204 | 88 | 179 | 6.0 | 10.0 | 0.00 | 0.00 | 0.00 | 70 | 1014.6 |
| 20260905150658 | 87 | 149 | 6.0 | 12.0 | 0.00 | 0.00 | 0.00 | 72 | 1014.4 |
| 20260905150156 | 87 | 166 | 4.0 | 8.0 | 0.00 | 0.00 | 0.00 | 72 | 1014.4 |
| 20260905145655 | 87 | 169 | 4.0 | 12.0 | 0.00 | 0.00 | 0.00 | 72 | 1014.4 |
| 20260905145154 | 88 | 190 | 5.0 | 7.0 | 0.00 | 0.00 | 0.00 | 72 | 1014.4 |
| 20260905144648 | 88 | 175 | 4.0 | 8.0 | 0.00 | 0.00 | 0.00 | 72 | 1014.4 |
| 20260905144143 | 87 | 151 | 4.0 | 14.0 | 0.00 | 0.00 | 0.00 | 73 | 1014.4 |
| 20260905143643 | 87 | 182 | 4.0 | 8.0 | 0.00 | 0.00 | 0.00 | 74 | 1014.4 |
| 20260905143143 | 87 | 177 | 4.0 | 9.0 | 0.00 | 0.00 | 0.00 | 74 | 1014.4 |
| 20260905142641 | 87 | 156 | 7.0 | 11.0 | 0.00 | 0.00 | 0.00 | 76 | 1014.3 |
| 20260905142136 | 86 | 182 | 8.0 | 9.0 | 0.00 | 0.00 | 0.00 | 77 | 1014.4 |
| 20260905141630 | 86 | 171 | 5.0 | 10.0 | 0.00 | 0.00 | 0.00 | 77 | 1014.3 |
| 20260905141127 | 86 | 153 | 4.0 | 9.0 | 0.00 | 0.00 | 0.00 | 77 | 1014.5 |
| 20260905140622 | 86 | 169 | 3.0 | 6.0 | 0.00 | 0.00 | 0.00 | 78 | 1014.3 |
| 20260905140121 | 85 | 182 | 3.0 | 8.0 | 0.00 | 0.00 | 0.00 | 79 | 1014.4 |
| 20260905135616 | 85 | 152 | 4.0 | 16.0 | 0.00 | 0.00 | 0.00 | 79 | 1014.1 |
| 20260905135112 | 85 | 154 | 4.0 | 12.0 | 0.00 | 0.00 | 0.00 | 80 | 1014.0 |
| 20260905134606 | 84 | 149 | 4.0 | 9.0 | 0.00 | 0.00 | 0.00 | 81 | 1013.8 |
| 20260905134104 | 84 | 153 | 4.0 | 10.0 | 0.00 | 0.00 | 0.00 | 81 | 1013.9 |
| 20260905133600 | 84 | 151 | 5.0 | 7.0 | 0.00 | 0.00 | 0.00 | 82 | 1013.8 |
| 20260905133054 | 84 | 140 | 5.0 | 9.0 | 0.00 | 0.00 | 0.00 | 82 | 1013.8 |
| 20260905132554 | 83 | 154 | 6.0 | 9.0 | 0.00 | 0.00 | 0.00 | 83 | 1013.8 |
| 20260905132049 | 83 | 141 | 6.0 | 8.0 | 0.00 | 0.00 | 0.00 | 84 | 1013.8 |
| 20260905131544 | 83 | 147 | 5.0 | 8.0 | 0.00 | 0.00 | 0.00 | 84 | 1013.6 |
| 20260905131040 | 82 | 165 | 3.0 | 6.0 | 0.00 | 0.00 | 0.00 | 84 | 1013.5 |
| 20260905130539 | 82 | 160 | 4.0 | 5.0 | 0.00 | 0.00 | 0.00 | 85 | 1013.5 |
| 20260905130034 | 82 | 155 | 3.0 | 6.0 | 0.00 | 0.00 | 0.00 | 85 | 1013.4 |
| 20260905125534 | 82 | 149 | 7.0 | 8.0 | 0.00 | 0.00 | 0.00 | 85 | 1013.2 |
| 20260905125029 | 82 | 187 | 5.0 | 5.0 | 0.00 | 0.00 | 0.00 | 85 | 1013.4 |
| 20260905124526 | 82 | 164 | 4.0 | 7.0 | 0.00 | 0.00 | 0.00 | 85 | 1013.2 |
| 20260905124021 | 82 | 164 | 3.0 | 4.0 | 0.00 | 0.00 | 0.00 | 85 | 1013.2 |
| 20260905123517 | 82 | 180 | 2.0 | 5.0 | 0.00 | 0.00 | 0.00 | 85 | 1013.1 |
| 20260905123014 | 82 | 164 | 3.0 | 4.0 | 0.00 | 0.00 | 0.00 | 85 | 1013.0 |
| 20260905122513 | 82 | 187 | 2.0 | 4.0 | 0.00 | 0.00 | 0.00 | 85 | 1013.0 |
| 20260905122008 | 82 | 163 | 4.0 | 5.0 | 0.00 | 0.00 | 0.00 | 85 | 1012.9 |
| 20260905121503 | 82 | 151 | 2.0 | 4.0 | 0.00 | 0.00 | 0.00 | 85 | 1012.9 |
| 20260905121002 | 82 | 158 | 4.0 | 6.0 | 0.00 | 0.00 | 0.00 | 85 | 1012.9 |
| 20260905120456 | 82 | 171 | 4.0 | 5.0 | 0.00 | 0.00 | 0.00 | 85 | 1013.0 |
| 20260905115952 | 82 | 155 | 3.0 | 6.0 | 0.00 | 0.00 | 0.00 | 85 | 1012.8 |
| 20260905115451 | 82 | 195 | 3.0 | 7.0 | 0.00 | 0.00 | 0.00 | 85 | 1012.7 |
| 20260905114946 | 82 | 194 | 2.0 | 5.0 | 0.00 | 0.00 | 0.00 | 85 | 1012.5 |
| 20260905114445 | 82 | 185 | 2.0 | 6.0 | 0.00 | 0.00 | 0.00 | 84 | 1012.7 |
| 20260905113944 | 82 | 156 | 5.0 | 7.0 | 0.00 | 0.00 | 0.00 | 84 | 1012.9 |
| 20260905113440 | 82 | 170 | 2.0 | 6.0 | 0.00 | 0.00 | 0.00 | 84 | 1012.7 |
| 20260905112935 | 82 | 182 | 4.0 | 4.0 | 0.00 | 0.00 | 0.00 | 84 | 1012.7 |
| 20260905112430 | 83 | 191 | 3.0 | 4.0 | 0.00 | 0.00 | 0.00 | 84 | 1012.4 |
| 20260905111925 | 82 | 159 | 3.0 | 5.0 | 0.00 | 0.00 | 0.00 | 84 | 1012.5 |
| 20260905111420 | 83 | 163 | 3.0 | 6.0 | 0.00 | 0.00 | 0.00 | 84 | 1012.4 |
| 20260905110920 | 83 | 165 | 3.0 | 6.0 | 0.00 | 0.00 | 0.00 | 84 | 1012.4 |
| 20260905110414 | 83 | 149 | 5.0 | 7.0 | 0.00 | 0.00 | 0.00 | 84 | 1012.6 |
| 20260905105909 | 83 | 148 | 4.0 | 6.0 | 0.00 | 0.00 | 0.00 | 84 | 1012.5 |
| 20260905105408 | 83 | 164 | 4.0 | 8.0 | 0.00 | 0.00 | 0.00 | 84 | 1012.6 |
| 20260905104908 | 83 | 160 | 2.0 | 7.0 | 0.00 | 0.00 | 0.00 | 84 | 1012.5 |
| 20260905104404 | 83 | 178 | 2.0 | 6.0 | 0.00 | 0.00 | 0.00 | 84 | 1012.6 |
| 20260905103858 | 83 | 164 | 3.0 | 6.0 | 0.00 | 0.00 | 0.00 | 84 | 1012.7 |
| 20260905103354 | 83 | 158 | 4.0 | 5.0 | 0.00 | 0.00 | 0.00 | 84 | 1012.7 |
| 20260905102850 | 83 | 180 | 3.0 | 5.0 | 0.00 | 0.00 | 0.00 | 84 | 1012.9 |
| 20260905102346 | 83 | 164 | 5.0 | 8.0 | 0.00 | 0.00 | 0.00 | 84 | 1012.8 |
| 20260905101840 | 83 | 157 | 5.0 | 6.0 | 0.00 | 0.00 | 0.00 | 84 | 1012.6 |
| 20260905101338 | 83 | 159 | 6.0 | 6.0 | 0.00 | 0.00 | 0.00 | 84 | 1012.6 |
| 20260905100832 | 83 | 185 | 1.0 | 5.0 | 0.00 | 0.00 | 0.00 | 83 | 1012.7 |
| 20260905100329 | 83 | 163 | 3.0 | 5.0 | 0.00 | 0.00 | 0.00 | 83 | 1012.6 |
| 20260905095828 | 83 | 185 | 2.0 | 5.0 | 0.00 | 0.00 | 0.00 | 83 | 1012.7 |
| 20260905095323 | 83 | 194 | 5.0 | 7.0 | 0.00 | 0.00 | 0.00 | 83 | 1012.8 |
| 20260905094818 | 83 | 154 | 4.0 | 5.0 | 0.00 | 0.00 | 0.00 | 83 | 1012.9 |
| 20260905094313 | 83 | 165 | 3.0 | 7.0 | 0.00 | 0.00 | 0.00 | 83 | 1012.7 |
| 20260905093811 | 83 | 182 | 2.0 | 6.0 | 0.00 | 0.00 | 0.00 | 83 | 1012.7 |
| 20260905093308 | 84 | 215 | 3.0 | 6.0 | 0.00 | 0.00 | 0.00 | 83 | 1012.9 |
| 20260905092803 | 84 | 161 | 4.0 | 8.0 | 0.00 | 0.00 | 0.00 | 83 | 1012.8 |
| 20260905092258 | 84 | 143 | 10.0 | 11.0 | 0.00 | 0.00 | 0.00 | 83 | 1012.9 |
| 20260905091758 | 84 | 155 | 3.0 | 10.0 | 0.00 | 0.00 | 0.00 | 82 | 1012.8 |
| 20260905091253 | 84 | 146 | 6.0 | 6.0 | 0.00 | 0.00 | 0.00 | 82 | 1012.9 |
| 20260905090751 | 84 | 184 | 8.0 | 8.0 | 0.00 | 0.00 | 0.00 | 82 | 1013.1 |
| 20260905090248 | 84 | 166 | 5.0 | 6.0 | 0.00 | 0.00 | 0.00 | 82 | 1013.1 |
| 20260905085742 | 84 | 181 | 4.0 | 5.0 | 0.00 | 0.00 | 0.00 | 82 | 1013.1 |
| 20260905085241 | 84 | 166 | 4.0 | 6.0 | 0.00 | 0.00 | 0.00 | 82 | 1012.9 |
| 20260905084741 | 84 | 185 | 4.0 | 6.0 | 0.00 | 0.00 | 0.00 | 82 | 1012.9 |
| 20260905084236 | 84 | 158 | 4.0 | 6.0 | 0.00 | 0.00 | 0.00 | 82 | 1013.0 |
| 20260905083731 | 84 | 192 | 3.0 | 9.0 | 0.00 | 0.00 | 0.00 | 82 | 1013.1 |
| 20260905083226 | 84 | 159 | 4.0 | 12.0 | 0.00 | 0.00 | 0.00 | 82 | 1013.1 |
| 20260905082722 | 84 | 203 | 4.0 | 7.0 | 0.00 | 0.00 | 0.00 | 82 | 1013.0 |
| 20260905082218 | 84 | 163 | 4.0 | 4.0 | 0.00 | 0.00 | 0.00 | 82 | 1013.1 |
| 20260905081718 | 84 | 176 | 2.0 | 8.0 | 0.00 | 0.00 | 0.00 | 82 | 1013.1 |
| 20260905081213 | 84 | 165 | 3.0 | 6.0 | 0.00 | 0.00 | 0.00 | 82 | 1013.2 |
| 20260905080712 | 84 | 200 | 3.0 | 5.0 | 0.00 | 0.00 | 0.00 | 82 | 1013.3 |
| 20260905080207 | 84 | 167 | 3.0 | 5.0 | 0.00 | 0.00 | 0.00 | 82 | 1013.2 |
| 20260905075706 | 84 | 161 | 3.0 | 7.0 | 0.00 | 0.00 | 0.00 | 82 | 1013.3 |
| 20260905075205 | 84 | 152 | 4.0 | 7.0 | 0.00 | 0.00 | 0.00 | 82 | 1013.4 |
| 20260905074704 | 84 | 157 | 7.0 | 8.0 | 0.00 | 0.00 | 0.00 | 82 | 1013.5 |
| 20260905074201 | 84 | 153 | 3.0 | 4.0 | 0.00 | 0.00 | 0.00 | 82 | 1013.3 |
| 20260905073656 | 84 | 177 | 3.0 | 7.0 | 0.00 | 0.00 | 0.00 | 82 | 1013.3 |
| 20260905073152 | 84 | 174 | 5.0 | 5.0 | 0.00 | 0.00 | 0.00 | 82 | 1013.6 |
| 20260905072651 | 84 | 166 | 3.0 | 5.0 | 0.00 | 0.00 | 0.00 | 82 | 1013.5 |
| 20260905072146 | 84 | 182 | 3.0 | 7.0 | 0.00 | 0.00 | 0.00 | 81 | 1013.3 |
| 20260905071643 | 84 | 161 | 4.0 | 8.0 | 0.00 | 0.00 | 0.00 | 81 | 1013.7 |
| 20260905071138 | 84 | 167 | 4.0 | 5.0 | 0.00 | 0.00 | 0.00 | 81 | 1013.6 |
| 20260905070633 | 84 | 162 | 7.0 | 7.0 | 0.00 | 0.00 | 0.00 | 81 | 1013.7 |
| 20260905070129 | 84 | 165 | 4.0 | 6.0 | 0.00 | 0.00 | 0.00 | 81 | 1013.7 |
| 20260905065627 | 84 | 148 | 4.0 | 9.0 | 0.00 | 0.00 | 0.00 | 81 | 1013.8 |
| 20260905065122 | 84 | 143 | 3.0 | 7.0 | 0.00 | 0.00 | 0.00 | 81 | 1013.9 |
| 20260905064617 | 84 | 151 | 5.0 | 9.0 | 0.00 | 0.00 | 0.00 | 81 | 1013.8 |
| 20260905064113 | 84 | 156 | 4.0 | 9.0 | 0.00 | 0.00 | 0.00 | 81 | 1013.9 |
| 20260905063611 | 84 | 155 | 3.0 | 3.0 | 0.00 | 0.00 | 0.00 | 81 | 1013.8 |
| 20260905063108 | 84 | 148 | 6.0 | 8.0 | 0.00 | 0.00 | 0.00 | 81 | 1014.0 |
| 20260905062603 | 84 | 107 | 2.0 | 10.0 | 0.00 | 0.00 | 0.00 | 81 | 1013.7 |
| 20260905062103 | 84 | 141 | 3.0 | 4.0 | 0.00 | 0.00 | 0.00 | 81 | 1013.7 |
| 20260905061557 | 84 | 153 | 5.0 | 7.0 | 0.00 | 0.00 | 0.00 | 80 | 1013.9 |
| 20260905061056 | 85 | 159 | 4.0 | 6.0 | 0.00 | 0.00 | 0.00 | 80 | 1013.8 |
| 20260905060552 | 85 | 153 | 7.0 | 9.0 | 0.00 | 0.00 | 0.00 | 80 | 1013.6 |
| 20260905060048 | 85 | 167 | 3.0 | 7.0 | 0.00 | 0.00 | 0.00 | 80 | 1013.7 |
| 20260905055546 | 85 | 152 | 3.0 | 7.0 | 0.00 | 0.00 | 0.00 | 80 | 1013.5 |
| 20260905055042 | 85 | 153 | 5.0 | 10.0 | 0.00 | 0.00 | 0.00 | 80 | 1013.5 |
| 20260905054537 | 85 | 137 | 8.0 | 9.0 | 0.00 | 0.00 | 0.00 | 80 | 1013.4 |
| 20260905054033 | 85 | 150 | 4.0 | 6.0 | 0.00 | 0.00 | 0.00 | 79 | 1013.4 |
| 20260905053527 | 85 | 161 | 6.0 | 11.0 | 0.00 | 0.00 | 0.00 | 79 | 1013.5 |
| 20260905053023 | 85 | 179 | 4.0 | 11.0 | 0.00 | 0.00 | 0.00 | 79 | 1013.6 |
| 20260905052521 | 85 | 156 | 6.0 | 8.0 | 0.00 | 0.00 | 0.00 | 79 | 1013.7 |
| 20260905052016 | 85 | 189 | 6.0 | 11.0 | 0.00 | 0.00 | 0.00 | 79 | 1013.6 |
| 20260905051512 | 85 | 160 | 7.0 | 11.0 | 0.00 | 0.00 | 0.00 | 79 | 1013.7 |
| 20260905051009 | 85 | 157 | 7.0 | 11.0 | 0.00 | 0.00 | 0.00 | 79 | 1013.7 |
| 20260905050504 | 85 | 163 | 4.0 | 7.0 | 0.00 | 0.00 | 0.00 | 79 | 1013.8 |
| 20260905050000 | 85 | 154 | 6.0 | 8.0 | 0.00 | 0.00 | 0.00 | 79 | 1013.9 |
| 20260905045449 | 85 | 157 | 7.0 | 11.0 | 0.00 | 0.00 | 0.00 | 79 | 1013.7 |
| 20260905044944 | 85 | 150 | 6.0 | 10.0 | 0.00 | 0.00 | 0.00 | 78 | 1013.6 |
| 20260905044439 | 85 | 176 | 3.0 | 6.0 | 0.00 | 0.00 | 0.00 | 78 | 1013.7 |
| 20260905043939 | 85 | 166 | 5.0 | 12.0 | 0.00 | 0.00 | 0.00 | 78 | 1013.6 |
| 20260905043438 | 85 | 135 | 10.0 | 13.0 | 0.00 | 0.00 | 0.00 | 78 | 1013.6 |
| 20260905042933 | 85 | 148 | 6.0 | 15.0 | 0.00 | 0.00 | 0.00 | 78 | 1013.4 |
| 20260905042427 | 85 | 155 | 5.0 | 12.0 | 0.00 | 0.00 | 0.00 | 78 | 1013.6 |
| 20260905041922 | 86 | 164 | 7.0 | 14.0 | 0.00 | 0.00 | 0.00 | 77 | 1013.5 |
| 20260905041413 | 86 | 159 | 5.0 | 7.0 | 0.00 | 0.00 | 0.00 | 77 | 1013.7 |
| 20260905040913 | 86 | 153 | 4.0 | 8.0 | 0.00 | 0.00 | 0.00 | 77 | 1014.0 |
| 20260905040412 | 86 | 143 | 8.0 | 17.0 | 0.00 | 0.00 | 0.00 | 77 | 1013.9 |
| 20260905035911 | 86 | 156 | 5.0 | 12.0 | 0.00 | 0.00 | 0.00 | 77 | 1014.0 |
| 20260905035407 | 86 | 142 | 8.0 | 9.0 | 0.00 | 0.00 | 0.00 | 76 | 1014.0 |
| 20260905034904 | 86 | 150 | 5.0 | 11.0 | 0.00 | 0.00 | 0.00 | 76 | 1014.2 |
| 20260905034359 | 86 | 157 | 6.0 | 12.0 | 0.00 | 0.00 | 0.00 | 75 | 1014.0 |
| 20260905033857 | 86 | 149 | 5.0 | 10.0 | 0.00 | 0.00 | 0.00 | 75 | 1013.7 |
| 20260905033353 | 86 | 161 | 10.0 | 13.0 | 0.00 | 0.00 | 0.00 | 74 | 1013.9 |
| 20260905032852 | 86 | 146 | 11.0 | 13.0 | 0.00 | 0.00 | 0.00 | 74 | 1014.1 |
| 20260905032348 | 86 | 161 | 8.0 | 12.0 | 0.00 | 0.00 | 0.00 | 74 | 1013.7 |
| 20260905031843 | 86 | 159 | 9.0 | 13.0 | 0.00 | 0.00 | 0.00 | 74 | 1013.9 |
| 20260905031339 | 86 | 132 | 9.0 | 14.0 | 0.00 | 0.00 | 0.00 | 73 | 1013.7 |
| 20260905030833 | 87 | 138 | 10.0 | 15.0 | 0.00 | 0.00 | 0.00 | 73 | 1013.6 |
| 20260905030329 | 87 | 150 | 9.0 | 15.0 | 0.00 | 0.00 | 0.00 | 73 | 1013.6 |